Tracking 21045 objects as of 4-Aug-2020
HD Live streaming from Space Station
objects crossing your sky now

COSMOS 2251 DEB

Track COSMOS 2251 DEB now!
10-day predictions


NORAD ID: 36369
Int'l Code: 1993-036AYW
Perigee: 724.9 km
Apogee: 759.3 km
Inclination: 74.0 °
Period: 99.5 minutes
Semi major axis: 7113 km
RCS: 0.0099 m2 (small)
Launch date: June 16, 1993
Source: Commonwealth of Independent States (former USSR) (CIS)
Launch site: PLESETSK MISSILE AND SPACE COMPLEX (PKMTR)

Note: This is SATELLITE DEBRIS
aabbcc
Your satellite tracking list
Your tracking list is empty




NASA's NSSDC Master Catalog

Two Line Element Set (TLE):
1 36369U 93036AYW 20213.19032793 +.00000467 +00000-0 +13511-3 0  9991
2 36369 074.0419 178.8674 0024156 031.6893 328.5713 14.47147268574169
Source of the keplerian elements: AFSPC